Regional Weather Roundup
Issued by NWS

Home | Current Version | Previous Version | Text Only | Print | Product List | Glossary Off
Versions: 1 2 3 4 5 6 7 8 9 10 11 12 13 14 15 16 17 18 19 20 21 22 23 24 25 26 27 28 29 30 31 32 33 34 35 36 37 38 39 40 41 42 43 44 45 46 47 48 49 50

000
ASUS45 KABQ 021201
RWRNM
WEATHER ROUNDUP FOR NEW MEXICO
NATIONAL WEATHER SERVICE ALBUQUERQUE NM
600 AM MDT TUE SEP 02 2014

NOTE: "FAIR" MEANS FEW OR NO CLOUDS BELOW 12,000 FEET AGL WITH NO
       SIGNIFICANT WEATHER OR OBSTRUCTIONS TO VISION.

      THIS PRODUCT IS RELEASED AS TWO VERSIONS.  ONE VERSION NEAR
      THE TOP OF THE HOUR CONTAINING PRELIMINARY DATA FROM ALBUQUERQUE
      AND OTHER STATIONS.  A FINAL VERSION WITH ADDITIONAL DATA IS
      ISSUED ABOUT 10 MINUTES AFTER THE HOUR.

NMZ501-503-504-510>518-021300-
NORTHWEST PLATEAU/NORTHCENTRAL MOUNTAINS

CITY           SKY/WX    TMP DP  RH WIND       PRES   REMARKS
FARMINGTON     CLEAR     54  36  50 E5        30.13R
6HR MIN TEMP:  54; 6HR MAX TEMP:  65;

LOS ALAMOS     CLEAR     64  28  25 CALM      30.25R
SANTA FE       CLEAR     58  31  35 N12       30.17R
6HR MIN TEMP:  56; 6HR MAX TEMP:  64;

ANGEL FIRE     FAIR      34  30  86 CALM      30.36R

$$
NMZ402-403-502-505>509-021300-
WESTCENTRAL MOUNTAINS/SOUTHWEST MOUNTAINS

CITY           SKY/WX    TMP DP  RH WIND       PRES   REMARKS
GALLUP         CLEAR     50  28  42 NE6       30.23R
6HR MIN TEMP:  50; 6HR MAX TEMP:  62;

SILVER CITY    CLEAR     64  34  32 NW13      30.13R

$$
NMZ407-409-411-412-021300-
SOUTHERN DESERTS

CITY           SKY/WX    TMP DP  RH WIND       PRES   REMARKS
LORDSBURG      FAIR      64  34  32 W7        30.04R
DEMING         CLEAR     67  34  29 W10       30.02R
6HR MIN TEMP:  60; 6HR MAX TEMP:  73;

LAS CRUCES     CLEAR     67  30  25 W7        30.03R
HOLLOMAN AFB   CLEAR     62  37  40 NW5       30.00R
ALAMOGORDO     CLEAR     61  36  39 NE3       30.01R
T OR C         CLEAR     68  37  32 NW10      30.06R
6HR MIN TEMP:  64; 6HR MAX TEMP:  75;


$$
NMZ519>523-021300-
CENTRAL VALLEYS/CENTRAL HIGHLANDS

CITY           SKY/WX    TMP DP  RH WIND       PRES   REMARKS
ALBUQUERQUE    CLEAR     64  40  41 CALM      30.13R
6HR MIN TEMP:  63; 6HR MAX TEMP:  77;

DOUBLE EAGLE   CLEAR     57  32  38 CALM      30.15R
CLINES CORNERS CLEAR     62  32  32 NW6       30.22R
6HR MIN TEMP:  59; 6HR MAX TEMP:  66;

BELEN          FAIR      59  40  50 NE3       30.12R
6HR MIN TEMP:  57; 6HR MAX TEMP:  74;

SOCORRO        FAIR      61  42  48 CALM      30.08R
6HR MIN TEMP:  60; 6HR MAX TEMP:  74;


$$
NMZ524>526-539-540-021300-
SOUTHCENTRAL MOUNTAINS

CITY           SKY/WX    TMP DP  RH WIND       PRES   REMARKS
RUIDOSO        NOT AVBL

$$
NMZ527>531-021300-
NORTHEAST HIGHLANDS/NORTHEAST PLAINS

CITY           SKY/WX    TMP DP  RH WIND       PRES   REMARKS
LAS VEGAS      CLEAR     50  31  48 N9        30.22R
6HR MIN TEMP:  49; 6HR MAX TEMP:  68;

RATON          CLEAR     52  41  66 NE8       30.17R
6HR MIN TEMP:  50; 6HR MAX TEMP:  65;

CLAYTON        FOG       64  62  93 N8        30.10R VSB 1/2
6HR MIN TEMP:  61; 6HR MAX TEMP:  65; 6HR PCP:  0.01;


$$
NMZ532>537-021300-
EASTCENTRAL PLAINS

CITY           SKY/WX    TMP DP  RH WIND       PRES   REMARKS
TUCUMCARI      CLOUDY    66  60  81 NE5       30.03R
6HR MIN TEMP:  66; 6HR MAX TEMP:  76;

CANNON AFB     CLEAR     66  46  48 SW5       30.02R
6HR MIN TEMP:  65; 6HR MAX TEMP:  79;

CLOVIS AIRPORT   N/A     63  48  59 SW7       30.03R

$$
NMZ028-029-538-021300-
SOUTHEAST PLAINS

CITY           SKY/WX    TMP DP  RH WIND       PRES   REMARKS
ROSWELL        CLEAR     65  44  46 CALM      29.96R
6HR MIN TEMP:  63; 6HR MAX TEMP:  78;

CARLSBAD       CLEAR     69  55  60 SW6       29.93R
6HR MIN TEMP:  69; 6HR MAX TEMP:  86;

HOBBS          CLEAR     72  57  60 S8        29.98


$$



USA.gov is the U.S. government's official web portal to all federal, state and local government web resources and services.